• In United Kingdom
  • List of Countries
  • For 7 days
  • Water Temperature
  • Satellite Maps
  • Weather Map
  • Weather Widgets
  • user-avatar
    Login

    Hourly Weather Nashavar

    Today, 21 September, Friday

    Time Temperature Precipitation Wind Pressure Humidity
    00:00 +32°C° 0.1 mm 1 mps 727 mmHg 31%
    01:00 +31°C° 0.1 mm 1 mps 727 mmHg 32%
    02:00 +31°C° 0.1 mm 1 mps 727 mmHg 33%
    03:00 +30°C° 0.2 mm 1 mps 727 mmHg 34%
    04:00 +30°C° 0.2 mm 1 mps 728 mmHg 35%
    05:00 +29°C° 0.2 mm 1 mps 728 mmHg 36%
    06:00 +30°C° 0.1 mm 1 mps 728 mmHg 34%
    07:00 +31°C° 0.1 mm 1 mps 729 mmHg 32%
    08:00 +31°C° 0.1 mm 1 mps 729 mmHg 30%
    09:00 +33°C° 0 mm 1 mps 729 mmHg 28%
    10:00 +35°C° 0 mm 2 mps 729 mmHg 26%
    11:00 +37°C° 0 mm 2 mps 729 mmHg 24%
    12:00 +38°C° 0 mm 2 mps 729 mmHg 23%
    13:00 +38°C° 0 mm 2 mps 729 mmHg 22%
    14:00 +39°C° 0 mm 2 mps 728 mmHg 21%
    15:00 +39°C° 0 mm 2 mps 728 mmHg 21%
    16:00 +39°C° 0 mm 2 mps 728 mmHg 21%
    17:00 +39°C° 0 mm 2 mps 728 mmHg 21%
    18:00 +37°C° 0 mm 2 mps 728 mmHg 24%
    19:00 +36°C° 0 mm 2 mps 728 mmHg 26%
    20:00 +34°C° 0 mm 1 mps 729 mmHg 29%
    21:00 +33°C° 0 mm 1 mps 729 mmHg 30%
    22:00 +33°C° 0 mm 1 mps 729 mmHg 31%
    23:00 +32°C° 0 mm 1 mps 729 mmHg 33%

    Tomorrow, 22 September, Saturday

    Time Temperature Precipitation Wind Pressure Humidity
    00:00 +31°C° 0 mm 1 mps 729 mmHg 34%
    01:00 +31°C° 0 mm 1 mps 729 mmHg 35%
    02:00 +30°C° 0 mm 1 mps 729 mmHg 36%
    03:00 +30°C° 0.1 mm 1 mps 729 mmHg 37%
    04:00 +29°C° 0.1 mm 1 mps 729 mmHg 38%
    05:00 +29°C° 0.1 mm 1 mps 729 mmHg 38%
    06:00 +30°C° 0 mm 1 mps 730 mmHg 37%
    07:00 +30°C° 0 mm 1 mps 730 mmHg 35%
    08:00 +31°C° 0 mm 1 mps 730 mmHg 33%
    09:00 +32°C° 0 mm 1 mps 730 mmHg 31%
    10:00 +34°C° 0 mm 1 mps 730 mmHg 29%
    11:00 +35°C° 0 mm 1 mps 730 mmHg 26%
    12:00 +36°C° 0 mm 1 mps 729 mmHg 25%
    13:00 +37°C° 0 mm 1 mps 729 mmHg 23%
    14:00 +39°C° 0 mm 1 mps 728 mmHg 22%
    15:00 +39°C° 0 mm 2 mps 728 mmHg 22%
    16:00 +39°C° 0 mm 2 mps 728 mmHg 22%
    17:00 +39°C° 0 mm 2 mps 727 mmHg 22%
    18:00 +37°C° 0 mm 2 mps 728 mmHg 24%
    19:00 +36°C° 0 mm 2 mps 728 mmHg 27%
    20:00 +35°C° 0 mm 2 mps 729 mmHg 29%
    21:00 +34°C° 0 mm 2 mps 729 mmHg 32%
    22:00 +32°C° 0 mm 2 mps 730 mmHg 34%
    23:00 +33°C° 0 mm 3 mps 730 mmHg 37%

    Day after tomorrow, 23 September, Sunday

    Time Temperature Precipitation Wind Pressure Humidity
    00:00 +31°C° 0.4 mm 3 mps 730 mmHg 43%
    01:00 +30°C° 0.4 mm 3 mps 730 mmHg 49%
    02:00 +29°C° 0.4 mm 3 mps 730 mmHg 56%
    03:00 +28°C° 0.3 mm 2 mps 730 mmHg 60%
    04:00 +28°C° 0.3 mm 2 mps 730 mmHg 64%
    05:00 +27°C° 0.3 mm 2 mps 730 mmHg 68%
    06:00 +27°C° 0 mm 1 mps 730 mmHg 67%
    07:00 +27°C° 0 mm 1 mps 730 mmHg 66%
    08:00 +28°C° 0 mm 1 mps 730 mmHg 65%
    09:00 +29°C° 0 mm 1 mps 730 mmHg 60%
    10:00 +30°C° 0 mm 1 mps 730 mmHg 55%
    11:00 +31°C° 0 mm 1 mps 730 mmHg 50%
    12:00 +32°C° 0 mm 1 mps 729 mmHg 46%
    13:00 +33°C° 0 mm 1 mps 728 mmHg 42%
    14:00 +34°C° 0 mm 1 mps 728 mmHg 38%
    15:00 +35°C° 0 mm 2 mps 727 mmHg 37%
    16:00 +36°C° 0 mm 2 mps 727 mmHg 37%
    17:00 +36°C° 0 mm 3 mps 727 mmHg 36%
    18:00 +35°C° 0 mm 2 mps 727 mmHg 39%
    19:00 +34°C° 0 mm 2 mps 728 mmHg 42%
    20:00 +32°C° 0 mm 2 mps 728 mmHg 45%
    21:00 +31°C° 0.2 mm 2 mps 729 mmHg 48%
    22:00 +31°C° 0.2 mm 3 mps 729 mmHg 51%
    23:00 +30°C° 0.2 mm 3 mps 729 mmHg 54%

    24 September, Monday

    Time Temperature Precipitation Wind Pressure Humidity
    00:00 +29°C° 0.2 mm 2 mps 729 mmHg 57%
    01:00 +28°C° 0.2 mm 2 mps 729 mmHg 60%
    02:00 +28°C° 0.2 mm 1 mps 729 mmHg 63%
    03:00 +27°C° 0.1 mm 1 mps 728 mmHg 64%
    04:00 +27°C° 0.1 mm 1 mps 728 mmHg 66%
    05:00 +27°C° 0.1 mm 1 mps 728 mmHg 67%
    06:00 +27°C° 0 mm 1 mps 728 mmHg 65%
    07:00 +28°C° 0 mm 1 mps 728 mmHg 63%
    08:00 +28°C° 0 mm 1 mps 728 mmHg 61%
    09:00 +29°C° 0 mm 1 mps 728 mmHg 56%
    10:00 +31°C° 0 mm 1 mps 728 mmHg 51%
    11:00 +32°C° 0 mm 1 mps 728 mmHg 46%
    12:00 +33°C° 0 mm 1 mps 728 mmHg 43%
    13:00 +35°C° 0 mm 2 mps 727 mmHg 40%
    14:00 +35°C° 0 mm 2 mps 727 mmHg 36%
    15:00 +35°C° 0 mm 2 mps 727 mmHg 36%
    16:00 +36°C° 0 mm 2 mps 727 mmHg 35%
    17:00 +36°C° 0 mm 3 mps 727 mmHg 35%
    18:00 +34°C° 0.1 mm 3 mps 727 mmHg 41%
    19:00 +33°C° 0.1 mm 3 mps 728 mmHg 46%
    20:00 +30°C° 0.1 mm 4 mps 728 mmHg 52%
    21:00 +30°C° 0.2 mm 3 mps 728 mmHg 55%
    22:00 +29°C° 0.2 mm 2 mps 728 mmHg 59%
    23:00 +28°C° 0.2 mm 1 mps 729 mmHg 62%

    25 September, Tuesday

    Time Temperature Precipitation Wind Pressure Humidity
    00:00 +28°C° 0.1 mm 1 mps 728 mmHg 64%
    01:00 +28°C° 0.1 mm 1 mps 728 mmHg 65%
    02:00 +27°C° 0.1 mm 1 mps 728 mmHg 67%
    03:00 +27°C° 0 mm 1 mps 728 mmHg 68%
    04:00 +26°C° 0 mm 1 mps 728 mmHg 70%
    05:00 +26°C° 0 mm 1 mps 728 mmHg 71%
    06:00 +27°C° 0 mm 1 mps 728 mmHg 69%
    07:00 +27°C° 0 mm 1 mps 728 mmHg 66%
    08:00 +28°C° 0 mm 1 mps 729 mmHg 64%
    09:00 +29°C° 0 mm 1 mps 729 mmHg 58%
    10:00 +30°C° 0 mm 1 mps 729 mmHg 51%
    11:00 +32°C° 0 mm 1 mps 729 mmHg 45%
    12:00 +33°C° 0 mm 1 mps 728 mmHg 41%
    13:00 +34°C° 0 mm 1 mps 728 mmHg 37%
    14:00 +35°C° 0 mm 1 mps 727 mmHg 33%
    15:00 +36°C° 0 mm 2 mps 727 mmHg 33%
    16:00 +36°C° 0 mm 2 mps 727 mmHg 32%
    17:00 +36°C° 0 mm 2 mps 726 mmHg 32%
    18:00 +35°C° 0 mm 2 mps 727 mmHg 35%
    19:00 +33°C° 0 mm 1 mps 727 mmHg 38%
    20:00 +32°C° 0 mm 1 mps 727 mmHg 41%
    21:00 +31°C° 0 mm 1 mps 728 mmHg 42%
    22:00 +31°C° 0 mm 1 mps 728 mmHg 44%
    23:00 +30°C° 0 mm 1 mps 728 mmHg 46%

    26 September, Wednesday

    Time Temperature Precipitation Wind Pressure Humidity
    00:00 +30°C° 0 mm 1 mps 727 mmHg 47%
    01:00 +29°C° 0 mm 1 mps 727 mmHg 48%
    02:00 +29°C° 0 mm 1 mps 727 mmHg 50%
    03:00 +28°C° 0 mm 1 mps 727 mmHg 50%
    04:00 +28°C° 0 mm 1 mps 727 mmHg 50%
    05:00 +28°C° 0 mm 1 mps 727 mmHg 50%
    06:00 +28°C° 0 mm 1 mps 727 mmHg 47%
    07:00 +29°C° 0 mm 1 mps 727 mmHg 43%
    08:00 +30°C° 0 mm 1 mps 728 mmHg 39%
    09:00 +31°C° 0 mm 1 mps 728 mmHg 34%
    10:00 +33°C° 0 mm 1 mps 728 mmHg 29%
    11:00 +34°C° 0 mm 1 mps 728 mmHg 25%
    12:00 +35°C° 0 mm 1 mps 727 mmHg 23%
    13:00 +36°C° 0 mm 1 mps 727 mmHg 21%
    14:00 +37°C° 0 mm 1 mps 727 mmHg 19%
    15:00 +37°C° 0 mm 1 mps 726 mmHg 20%
    16:00 +37°C° 0 mm 1 mps 726 mmHg 20%
    17:00 +38°C° 0 mm 2 mps 726 mmHg 21%
    18:00 +35°C° 0 mm 1 mps 727 mmHg 24%
    19:00 +34°C° 0 mm 1 mps 727 mmHg 27%
    20:00 +33°C° 0 mm 1 mps 728 mmHg 30%
    21:00 +32°C° 0 mm 1 mps 728 mmHg 31%
    22:00 +31°C° 0 mm 1 mps 728 mmHg 31%
    23:00 +31°C° 0 mm 1 mps 728 mmHg 32%
    Show more